| time (UTC) | temp F | wind direction | speed MPH | gust MPH | rain 1hr in | rain 24hr in | rain mn in | humidity % | barometer mb |
| 20260506185020 | 55 | 321 | 10.0 | 16.0 | 0.00 | 0.00 | 0.00 | 42 | 1014.2 |
| 20260506184526 | 55 | 297 | 10.0 | 15.0 | 0.00 | 0.00 | 0.00 | 40 | 1014.1 |
| 20260506184020 | 56 | 266 | 7.0 | 14.0 | 0.00 | 0.00 | 0.00 | 40 | 1014.2 |
| 20260506183557 | 56 | 260 | 6.0 | 15.0 | 0.00 | 0.00 | 0.00 | 44 | 1014.1 |
| 20260506183028 | 56 | 273 | 10.0 | 15.0 | 0.00 | 0.00 | 0.00 | 43 | 1014.1 |
| 20260506182520 | 54 | 287 | 10.0 | 15.0 | 0.00 | 0.00 | 0.00 | 40 | 1014.1 |
| 20260506182059 | 54 | 284 | 8.0 | 13.0 | 0.00 | 0.00 | 0.00 | 42 | 1014.2 |
| 20260506181528 | 54 | 331 | 7.0 | 17.0 | 0.00 | 0.00 | 0.00 | 44 | 1014.1 |
| 20260506181025 | 54 | 322 | 10.0 | 17.0 | 0.00 | 0.00 | 0.00 | 43 | 1014.1 |
| 20260506180538 | 54 | 322 | 10.0 | 14.0 | 0.00 | 0.00 | 0.00 | 40 | 1014.2 |
| 20260506180024 | 54 | 302 | 10.0 | 14.0 | 0.00 | 0.00 | 0.00 | 42 | 1014.2 |
| 20260506175520 | 53 | 308 | 10.0 | 16.0 | 0.00 | 0.00 | 0.00 | 46 | 1014.2 |
| 20260506175017 | 52 | 239 | 8.0 | 18.0 | 0.00 | 0.00 | 0.00 | 43 | 1014.4 |
| 20260506174543 | 53 | 248 | 11.0 | 18.0 | 0.00 | 0.00 | 0.00 | 42 | 1014.3 |
| 20260506174052 | 53 | 302 | 8.0 | 17.0 | 0.00 | 0.00 | 0.00 | 45 | 1014.3 |
| 20260506173538 | 52 | 296 | 6.0 | 16.0 | 0.00 | 0.00 | 0.00 | 44 | 1014.3 |
| 20260506173026 | 53 | 301 | 10.0 | 16.0 | 0.00 | 0.00 | 0.00 | 43 | 1014.3 |
| 20260506172520 | 53 | 306 | 9.0 | 19.0 | 0.00 | 0.00 | 0.00 | 45 | 1014.2 |
| 20260506172030 | 53 | 309 | 10.0 | 19.0 | 0.00 | 0.00 | 0.00 | 41 | 1014.3 |
| 20260506171536 | 53 | 278 | 5.0 | 15.0 | 0.00 | 0.00 | 0.00 | 44 | 1014.3 |
| 20260506171100 | 53 | 303 | 8.0 | 17.0 | 0.00 | 0.00 | 0.00 | 43 | 1014.4 |
| 20260506170521 | 54 | 287 | 11.0 | 17.0 | 0.00 | 0.00 | 0.00 | 42 | 1014.5 |
| 20260506170033 | 53 | 277 | 3.0 | 14.0 | 0.00 | 0.00 | 0.00 | 44 | 1014.4 |
| 20260506165525 | 52 | 309 | 8.0 | 16.0 | 0.00 | 0.00 | 0.00 | 43 | 1014.5 |
| 20260506165040 | 52 | 318 | 9.0 | 16.0 | 0.00 | 0.00 | 0.00 | 43 | 1014.6 |
| 20260506164521 | 52 | 285 | 7.0 | 17.0 | 0.00 | 0.00 | 0.00 | 46 | 1014.4 |
| 20260506164038 | 53 | 312 | 7.0 | 17.0 | 0.00 | 0.00 | 0.00 | 43 | 1014.5 |
| 20260506163535 | 53 | 294 | 8.0 | 14.0 | 0.00 | 0.00 | 0.00 | 42 | 1014.6 |
| 20260506163031 | 52 | 313 | 8.0 | 16.0 | 0.00 | 0.00 | 0.00 | 46 | 1014.6 |
| 20260506162518 | 53 | 296 | 9.0 | 21.0 | 0.00 | 0.00 | 0.00 | 43 | 1014.6 |
| 20260506162034 | 53 | 321 | 9.0 | 17.0 | 0.00 | 0.00 | 0.00 | 46 | 1014.6 |
| 20260506161522 | 52 | 306 | 5.0 | 17.0 | 0.00 | 0.00 | 0.00 | 46 | 1014.6 |
| 20260506161037 | 52 | 281 | 10.0 | 17.0 | 0.00 | 0.00 | 0.00 | 43 | 1014.6 |
| 20260506160543 | 52 | 331 | 9.0 | 17.0 | 0.00 | 0.00 | 0.00 | 45 | 1014.6 |
| 20260506160033 | 52 | 329 | 12.0 | 19.0 | 0.00 | 0.00 | 0.00 | 45 | 1014.5 |
| 20260506155530 | 52 | 298 | 10.0 | 15.0 | 0.00 | 0.00 | 0.00 | 47 | 1014.5 |
| 20260506155028 | 51 | 296 | 8.0 | 19.0 | 0.00 | 0.00 | 0.00 | 45 | 1014.5 |
| 20260506154529 | 52 | 297 | 9.0 | 19.0 | 0.00 | 0.00 | 0.00 | 43 | 1014.5 |
| 20260506154025 | 52 | 292 | 10.0 | 15.0 | 0.00 | 0.00 | 0.00 | 46 | 1014.5 |
| 20260506153519 | 52 | 309 | 8.0 | 15.0 | 0.00 | 0.00 | 0.00 | 44 | 1014.5 |
| 20260506153053 | 52 | 303 | 9.0 | 15.0 | 0.00 | 0.00 | 0.00 | 47 | 1014.4 |
| 20260506152536 | 52 | 341 | 8.0 | 16.0 | 0.00 | 0.00 | 0.00 | 45 | 1014.4 |
| 20260506152032 | 52 | 327 | 11.0 | 16.0 | 0.00 | 0.00 | 0.00 | 46 | 1014.5 |
| 20260506151520 | 52 | 314 | 5.0 | 16.0 | 0.00 | 0.00 | 0.00 | 47 | 1014.5 |
| 20260506151021 | 52 | 326 | 9.0 | 16.0 | 0.00 | 0.00 | 0.00 | 45 | 1014.5 |
| 20260506150542 | 52 | 287 | 7.0 | 15.0 | 0.00 | 0.00 | 0.00 | 46 | 1014.6 |
| 20260506150043 | 52 | 337 | 9.0 | 14.0 | 0.00 | 0.00 | 0.00 | 46 | 1014.6 |
| 20260506145518 | 52 | 317 | 6.0 | 12.0 | 0.00 | 0.00 | 0.00 | 48 | 1014.5 |
| 20260506145036 | 52 | 317 | 7.0 | 14.0 | 0.00 | 0.00 | 0.00 | 48 | 1014.6 |
| 20260506144531 | 52 | 291 | 6.0 | 10.0 | 0.00 | 0.00 | 0.00 | 49 | 1014.5 |
| 20260506144034 | 51 | 237 | 5.0 | 14.0 | 0.00 | 0.00 | 0.00 | 50 | 1014.5 |
| 20260506143529 | 51 | 327 | 7.0 | 14.0 | 0.00 | 0.00 | 0.00 | 47 | 1014.5 |
| 20260506143021 | 51 | 322 | 9.0 | 14.0 | 0.00 | 0.00 | 0.00 | 48 | 1014.5 |
| 20260506142525 | 50 | 315 | 8.0 | 12.0 | 0.00 | 0.00 | 0.00 | 49 | 1014.5 |
| 20260506142020 | 50 | 321 | 7.0 | 11.0 | 0.00 | 0.00 | 0.00 | 48 | 1014.4 |
| 20260506141533 | 50 | 298 | 7.0 | 11.0 | 0.00 | 0.00 | 0.00 | 49 | 1014.5 |
| 20260506141033 | 50 | 309 | 6.0 | 10.0 | 0.00 | 0.00 | 0.00 | 52 | 1014.4 |
| 20260506140519 | 49 | 321 | 6.0 | 11.0 | 0.00 | 0.00 | 0.00 | 53 | 1014.4 |
| 20260506140029 | 49 | 306 | 6.0 | 11.0 | 0.00 | 0.00 | 0.00 | 53 | 1014.5 |
| 20260506135525 | 48 | 318 | 7.0 | 10.0 | 0.00 | 0.00 | 0.00 | 53 | 1014.5 |
| 20260506135021 | 47 | 301 | 4.0 | 10.0 | 0.00 | 0.00 | 0.00 | 57 | 1014.3 |
| 20260506134525 | 46 | 320 | 5.0 | 10.0 | 0.00 | 0.00 | 0.00 | 59 | 1014.3 |
| 20260506134042 | 45 | 329 | 6.0 | 10.0 | 0.00 | 0.00 | 0.00 | 58 | 1014.2 |
| 20260506133532 | 44 | 306 | 7.0 | 10.0 | 0.00 | 0.00 | 0.00 | 58 | 1014.2 |
| 20260506133053 | 44 | 300 | 7.0 | 11.0 | 0.00 | 0.00 | 0.00 | 60 | 1014.2 |
| 20260506132529 | 43 | 306 | 8.0 | 12.0 | 0.00 | 0.00 | 0.00 | 61 | 1014.2 |
| 20260506132018 | 43 | 306 | 6.0 | 12.0 | 0.00 | 0.00 | 0.00 | 61 | 1014.2 |
| 20260506131536 | 43 | 267 | 7.0 | 10.0 | 0.00 | 0.00 | 0.00 | 61 | 1014.1 |
| 20260506131032 | 43 | 281 | 7.0 | 10.0 | 0.00 | 0.00 | 0.00 | 61 | 1014.1 |
| 20260506130526 | 43 | 309 | 6.0 | 12.0 | 0.00 | 0.00 | 0.00 | 60 | 1014.0 |
| 20260506130020 | 43 | 328 | 7.0 | 12.0 | 0.00 | 0.00 | 0.00 | 61 | 1014.0 |
| 20260506125543 | 43 | 306 | 5.0 | 11.0 | 0.00 | 0.00 | 0.00 | 61 | 1013.7 |
| 20260506125033 | 43 | 319 | 6.0 | 11.0 | 0.00 | 0.00 | 0.00 | 61 | 1013.7 |
| 20260506124525 | 43 | 298 | 6.0 | 10.0 | 0.00 | 0.00 | 0.00 | 62 | 1013.9 |
| 20260506124021 | 43 | 252 | 5.0 | 10.0 | 0.00 | 0.00 | 0.00 | 63 | 1013.7 |
| 20260506123538 | 43 | 288 | 4.0 | 10.0 | 0.00 | 0.00 | 0.00 | 63 | 1013.7 |
| 20260506123032 | 42 | 294 | 6.0 | 10.0 | 0.00 | 0.00 | 0.00 | 63 | 1013.7 |
| 20260506122538 | 42 | 258 | 6.0 | 10.0 | 0.00 | 0.00 | 0.00 | 64 | 1013.6 |
| 20260506122052 | 41 | 239 | 4.0 | 8.0 | 0.00 | 0.00 | 0.00 | 65 | 1013.4 |
| 20260506121529 | 41 | 288 | 6.0 | 8.0 | 0.00 | 0.00 | 0.00 | 65 | 1013.3 |
| 20260506121023 | 40 | 254 | 3.0 | 7.0 | 0.00 | 0.00 | 0.00 | 66 | 1013.2 |
| 20260506120536 | 40 | 292 | 3.0 | 5.0 | 0.00 | 0.00 | 0.00 | 66 | 1013.0 |
| 20260506120034 | 39 | 285 | 2.0 | 5.0 | 0.00 | 0.00 | 0.00 | 66 | 1012.9 |
| 20260506115532 | 39 | 292 | 3.0 | 5.0 | 0.00 | 0.00 | 0.00 | 67 | 1012.9 |
| 20260506115018 | 39 | 305 | 3.0 | 5.0 | 0.00 | 0.00 | 0.00 | 67 | 1012.8 |
| 20260506114536 | 38 | 282 | 3.0 | 5.0 | 0.00 | 0.00 | 0.00 | 67 | 1012.9 |
| 20260506114051 | 38 | 301 | 3.0 | 5.0 | 0.00 | 0.00 | 0.00 | 68 | 1012.8 |
| 20260506113524 | 37 | 279 | 2.0 | 7.0 | 0.00 | 0.00 | 0.00 | 68 | 1012.9 |
| 20260506113028 | 37 | 298 | 4.0 | 8.0 | 0.00 | 0.00 | 0.00 | 69 | 1012.9 |
| 20260506112543 | 37 | 298 | 3.0 | 8.0 | 0.00 | 0.00 | 0.00 | 69 | 1013.0 |
| 20260506112037 | 37 | 296 | 5.0 | 9.0 | 0.00 | 0.00 | 0.00 | 69 | 1012.9 |
| 20260506111557 | 37 | 291 | 3.0 | 7.0 | 0.00 | 0.00 | 0.00 | 69 | 1012.9 |
| 20260506111027 | 36 | 302 | 4.0 | 7.0 | 0.00 | 0.00 | 0.00 | 70 | 1012.9 |
| 20260506110521 | 36 | 284 | 4.0 | 7.0 | 0.00 | 0.00 | 0.00 | 70 | 1012.8 |
| 20260506110036 | 36 | 304 | 4.0 | 7.0 | 0.00 | 0.00 | 0.00 | 70 | 1012.7 |
| 20260506105532 | 35 | 299 | 4.0 | 7.0 | 0.00 | 0.00 | 0.00 | 70 | 1012.7 |
| 20260506105019 | 35 | 290 | 3.0 | 5.0 | 0.00 | 0.00 | 0.00 | 71 | 1012.5 |
| 20260506104526 | 35 | 288 | 3.0 | 7.0 | 0.00 | 0.00 | 0.00 | 70 | 1012.6 |
| 20260506104036 | 35 | 279 | 4.0 | 7.0 | 0.00 | 0.00 | 0.00 | 70 | 1012.6 |
| 20260506103533 | 35 | 287 | 3.0 | 4.0 | 0.00 | 0.00 | 0.00 | 70 | 1012.5 |
| 20260506103024 | 35 | 266 | 2.0 | 4.0 | 0.00 | 0.00 | 0.00 | 70 | 1012.4 |
| 20260506102522 | 35 | 264 | 1.0 | 3.0 | 0.00 | 0.00 | 0.00 | 70 | 1012.2 |
| 20260506102020 | 36 | 264 | 1.0 | 3.0 | 0.00 | 0.00 | 0.00 | 70 | 1012.3 |
| 20260506101537 | 36 | 264 | 1.0 | 4.0 | 0.00 | 0.00 | 0.00 | 70 | 1012.3 |
| 20260506101026 | 36 | 273 | 1.0 | 3.0 | 0.00 | 0.00 | 0.00 | 70 | 1012.2 |
| 20260506100520 | 36 | 273 | 2.0 | 4.0 | 0.00 | 0.00 | 0.00 | 71 | 1012.2 |
| 20260506100019 | 36 | 221 | 2.0 | 5.0 | 0.00 | 0.00 | 0.00 | 71 | 1012.2 |
| 20260506095518 | 36 | 221 | 3.0 | 5.0 | 0.00 | 0.00 | 0.00 | 71 | 1012.2 |
| 20260506095017 | 36 | 221 | 3.0 | 5.0 | 0.00 | 0.00 | 0.00 | 71 | 1012.2 |
| 20260506094543 | 36 | 221 | 3.0 | 7.0 | 0.00 | 0.00 | 0.00 | 71 | 1012.2 |
| 20260506094034 | 36 | 236 | 4.0 | 7.0 | 0.00 | 0.00 | 0.00 | 71 | 1012.2 |
| 20260506093532 | 36 | 235 | 4.0 | 6.0 | 0.00 | 0.00 | 0.00 | 71 | 1012.3 |
| 20260506093041 | 36 | 228 | 4.0 | 6.0 | 0.00 | 0.00 | 0.00 | 71 | 1012.3 |
| 20260506092535 | 36 | 232 | 4.0 | 5.0 | 0.00 | 0.00 | 0.00 | 71 | 1012.1 |
| 20260506092029 | 36 | 239 | 3.0 | 5.0 | 0.00 | 0.00 | 0.00 | 71 | 1012.2 |
| 20260506091519 | 36 | 239 | 3.0 | 5.0 | 0.00 | 0.00 | 0.00 | 71 | 1012.2 |
| 20260506091034 | 36 | 239 | 3.0 | 6.0 | 0.00 | 0.00 | 0.00 | 72 | 1012.2 |
| 20260506090525 | 36 | 236 | 4.0 | 6.0 | 0.00 | 0.00 | 0.00 | 72 | 1012.3 |
| 20260506090029 | 36 | 225 | 4.0 | 7.0 | 0.00 | 0.00 | 0.00 | 72 | 1012.3 |
| 20260506085523 | 35 | 229 | 5.0 | 7.0 | 0.00 | 0.00 | 0.00 | 73 | 1012.5 |
| 20260506085019 | 35 | 242 | 4.0 | 7.0 | 0.00 | 0.00 | 0.00 | 73 | 1012.6 |
| 20260506084528 | 35 | 227 | 4.0 | 7.0 | 0.00 | 0.00 | 0.00 | 73 | 1012.7 |
| 20260506084022 | 35 | 228 | 3.0 | 7.0 | 0.00 | 0.00 | 0.00 | 72 | 1012.5 |
| 20260506083520 | 35 | 264 | 3.0 | 6.0 | 0.00 | 0.00 | 0.00 | 72 | 1012.3 |
| 20260506083037 | 35 | 206 | 1.0 | 2.0 | 0.00 | 0.00 | 0.00 | 72 | 1012.1 |
| 20260506082526 | 35 | 206 | 0.0 | 3.0 | 0.00 | 0.00 | 0.00 | 72 | 1012.1 |
| 20260506082038 | 35 | 206 | 2.0 | 3.0 | 0.00 | 0.00 | 0.00 | 72 | 1012.2 |
| 20260506081521 | 35 | 206 | 1.0 | 3.0 | 0.00 | 0.00 | 0.00 | 71 | 1012.0 |
| 20260506081032 | 35 | 206 | 2.0 | 3.0 | 0.00 | 0.00 | 0.00 | 71 | 1012.0 |
| 20260506080523 | 35 | 206 | 1.0 | 3.0 | 0.00 | 0.00 | 0.00 | 71 | 1011.9 |
| 20260506073032 | 35 | 355 | 1.0 | 2.0 | 0.00 | 0.00 | 0.00 | 67 | 1011.9 |
| 20260506072525 | 36 | 355 | 0.0 | 0.0 | 0.00 | 0.00 | 0.00 | 66 | 1011.8 |
| 20260506072019 | 36 | 355 | 0.0 | 0.0 | 0.00 | 0.00 | 0.00 | 66 | 1011.8 |
| 20260506071557 | 36 | 355 | 0.0 | 0.0 | 0.00 | 0.00 | 0.00 | 66 | 1011.7 |
| 20260506071026 | 36 | 355 | 0.0 | 1.0 | 0.00 | 0.00 | 0.00 | 65 | 1011.7 |
| 20260506070522 | 36 | 355 | 0.0 | 1.0 | 0.00 | 0.00 | 0.00 | 65 | 1011.7 |
| 20260506062043 | 38 | 355 | 0.0 | 0.0 | 0.00 | 0.00 | 0.00 | 60 | 1012.0 |
| 20260506061541 | 38 | 355 | 0.0 | 0.0 | 0.00 | 0.00 | 0.00 | 59 | 1012.0 |
| 20260506061034 | 39 | 355 | 0.0 | 0.0 | 0.00 | 0.00 | 0.00 | 59 | 1012.0 |
| 20260506060536 | 39 | 355 | 0.0 | 0.0 | 0.00 | 0.00 | 0.00 | 59 | 1012.0 |
| 20260506051028 | 42 | 355 | 1.0 | 1.0 | 0.00 | 0.00 | 0.00 | 53 | 1011.8 |
| 20260506050549 | 42 | 355 | 0.0 | 3.0 | 0.00 | 0.00 | 0.00 | 52 | 1011.9 |
| 20260506045033 | 43 | 355 | 0.0 | 0.0 | 0.00 | 0.00 | 0.00 | 50 | 1012.1 |
| 20260506044532 | 43 | 355 | 0.0 | 0.0 | 0.00 | 0.00 | 0.00 | 50 | 1012.1 |
| 20260506044042 | 43 | 355 | 0.0 | 0.0 | 0.00 | 0.00 | 0.00 | 49 | 1012.1 |
| 20260506043537 | 44 | 355 | 0.0 | 0.0 | 0.00 | 0.00 | 0.00 | 49 | 1012.1 |
| 20260506043035 | 44 | 355 | 0.0 | 0.0 | 0.00 | 0.00 | 0.00 | 48 | 1012.1 |
| 20260506042518 | 44 | 355 | 0.0 | 0.0 | 0.00 | 0.00 | 0.00 | 48 | 1012.1 |
| 20260506042031 | 45 | 355 | 0.0 | 0.0 | 0.00 | 0.00 | 0.00 | 47 | 1012.0 |
| 20260506041521 | 45 | 355 | 0.0 | 1.0 | 0.00 | 0.00 | 0.00 | 47 | 1012.0 |
| 20260506041053 | 45 | 355 | 0.0 | 1.0 | 0.00 | 0.00 | 0.00 | 47 | 1012.0 |
| 20260506040536 | 45 | 355 | 0.0 | 2.0 | 0.00 | 0.00 | 0.00 | 47 | 1011.9 |
| 20260506040034 | 46 | 355 | 1.0 | 3.0 | 0.00 | 0.00 | 0.00 | 47 | 1011.8 |
| 20260506035544 | 46 | 355 | 2.0 | 3.0 | 0.00 | 0.00 | 0.00 | 46 | 1011.7 |
| 20260506035018 | 46 | 355 | 1.0 | 3.0 | 0.00 | 0.00 | 0.00 | 45 | 1011.6 |
| 20260506034536 | 46 | 355 | 1.0 | 3.0 | 0.00 | 0.00 | 0.00 | 46 | 1011.5 |
| 20260506034018 | 46 | 355 | 2.0 | 4.0 | 0.00 | 0.00 | 0.00 | 45 | 1011.5 |
| 20260506033534 | 47 | 338 | 2.0 | 5.0 | 0.00 | 0.00 | 0.00 | 45 | 1011.6 |
| 20260506033031 | 47 | 342 | 2.0 | 6.0 | 0.00 | 0.00 | 0.00 | 45 | 1011.5 |
| 20260506032525 | 47 | 328 | 3.0 | 6.0 | 0.00 | 0.00 | 0.00 | 45 | 1011.5 |
| 20260506032023 | 47 | 332 | 4.0 | 8.0 | 0.00 | 0.00 | 0.00 | 44 | 1011.5 |
| 20260506031531 | 47 | 334 | 4.0 | 6.0 | 0.00 | 0.00 | 0.00 | 45 | 1011.3 |
| 20260506031021 | 47 | 331 | 4.0 | 6.0 | 0.00 | 0.00 | 0.00 | 45 | 1011.5 |
| 20260506030521 | 47 | 332 | 3.0 | 5.0 | 0.00 | 0.00 | 0.00 | 45 | 1011.5 |
| 20260506030041 | 48 | 328 | 3.0 | 5.0 | 0.00 | 0.00 | 0.00 | 45 | 1011.4 |
| 20260506025537 | 48 | 322 | 2.0 | 5.0 | 0.00 | 0.00 | 0.00 | 44 | 1011.4 |
| 20260506025057 | 48 | 325 | 2.0 | 6.0 | 0.00 | 0.00 | 0.00 | 44 | 1011.3 |
| 20260506024526 | 48 | 315 | 3.0 | 5.0 | 0.00 | 0.00 | 0.00 | 43 | 1011.4 |
| 20260506024042 | 48 | 330 | 3.0 | 6.0 | 0.00 | 0.00 | 0.00 | 43 | 1011.2 |
| 20260506023529 | 48 | 325 | 4.0 | 8.0 | 0.00 | 0.00 | 0.00 | 43 | 1011.0 |
| 20260506023035 | 48 | 323 | 4.0 | 8.0 | 0.00 | 0.00 | 0.00 | 43 | 1010.9 |
| 20260506022526 | 48 | 324 | 4.0 | 9.0 | 0.00 | 0.00 | 0.00 | 42 | 1010.8 |
| 20260506022042 | 49 | 316 | 5.0 | 9.0 | 0.00 | 0.00 | 0.00 | 42 | 1010.8 |
| 20260506021032 | 49 | 319 | 6.0 | 10.0 | 0.00 | 0.00 | 0.00 | 42 | 1010.6 |
| 20260506020519 | 49 | 330 | 5.0 | 11.0 | 0.00 | 0.00 | 0.00 | 41 | 1010.5 |
| 20260506020025 | 49 | 323 | 5.0 | 11.0 | 0.00 | 0.00 | 0.00 | 41 | 1010.4 |
| 20260506015525 | 49 | 318 | 7.0 | 10.0 | 0.00 | 0.00 | 0.00 | 41 | 1010.3 |
| 20260506015020 | 50 | 331 | 5.0 | 9.0 | 0.00 | 0.00 | 0.00 | 41 | 1010.4 |
| 20260506014531 | 50 | 319 | 3.0 | 10.0 | 0.00 | 0.00 | 0.00 | 41 | 1010.4 |
| 20260506014018 | 50 | 304 | 6.0 | 11.0 | 0.00 | 0.00 | 0.00 | 40 | 1010.3 |
| 20260506013538 | 50 | 291 | 6.0 | 10.0 | 0.00 | 0.00 | 0.00 | 40 | 1010.2 |
| 20260506013025 | 50 | 303 | 6.0 | 12.0 | 0.00 | 0.00 | 0.00 | 40 | 1010.0 |
| 20260506012522 | 50 | 302 | 7.0 | 12.0 | 0.00 | 0.00 | 0.00 | 40 | 1009.9 |
| 20260506012017 | 50 | 311 | 7.0 | 11.0 | 0.00 | 0.00 | 0.00 | 40 | 1009.9 |
| 20260506011532 | 50 | 308 | 5.0 | 15.0 | 0.00 | 0.00 | 0.00 | 40 | 1010.0 |
| 20260506011026 | 51 | 309 | 7.0 | 15.0 | 0.00 | 0.00 | 0.00 | 40 | 1009.8 |
| 20260506010521 | 51 | 331 | 10.0 | 14.0 | 0.00 | 0.00 | 0.00 | 40 | 1009.9 |
| 20260506010023 | 51 | 296 | 8.0 | 14.0 | 0.00 | 0.00 | 0.00 | 40 | 1009.8 |
| 20260506005538 | 51 | 335 | 9.0 | 14.0 | 0.00 | 0.00 | 0.00 | 39 | 1009.8 |
| 20260506005029 | 51 | 312 | 8.0 | 11.0 | 0.00 | 0.00 | 0.00 | 39 | 1009.7 |
| 20260506004528 | 51 | 313 | 7.0 | 12.0 | 0.00 | 0.00 | 0.00 | 40 | 1009.7 |
| 20260506004024 | 51 | 294 | 6.0 | 15.0 | 0.00 | 0.00 | 0.00 | 39 | 1009.6 |
| 20260506003529 | 52 | 315 | 10.0 | 15.0 | 0.00 | 0.00 | 0.00 | 38 | 1009.6 |
| 20260506003028 | 52 | 309 | 6.0 | 13.0 | 0.00 | 0.00 | 0.00 | 39 | 1009.6 |
| 20260506002546 | 52 | 314 | 8.0 | 14.0 | 0.00 | 0.00 | 0.00 | 39 | 1009.5 |
| 20260506002019 | 52 | 312 | 9.0 | 16.0 | 0.00 | 0.00 | 0.00 | 38 | 1009.5 |
| 20260506001516 | 52 | 321 | 11.0 | 16.0 | 0.00 | 0.00 | 0.00 | 38 | 1009.4 |
| 20260506001033 | 52 | 292 | 11.0 | 16.0 | 0.00 | 0.00 | 0.00 | 37 | 1009.5 |
| 20260506000538 | 53 | 320 | 10.0 | 16.0 | 0.00 | 0.00 | 0.00 | 37 | 1009.4 |
| 20260506000027 | 53 | 302 | 12.0 | 16.0 | 0.00 | 0.00 | 0.00 | 37 | 1009.4 |
| 20260505235521 | 53 | 287 | 11.0 | 18.0 | 0.00 | 0.00 | 0.00 | 36 | 1009.3 |
| 20260505235020 | 53 | 288 | 13.0 | 18.0 | 0.00 | 0.00 | 0.00 | 36 | 1009.2 |
| 20260505234517 | 53 | 312 | 12.0 | 19.0 | 0.00 | 0.00 | 0.00 | 36 | 1009.2 |
| 20260505234053 | 53 | 308 | 13.0 | 19.0 | 0.00 | 0.00 | 0.00 | 36 | 1009.3 |
| 20260505233518 | 54 | 323 | 13.0 | 20.0 | 0.00 | 0.00 | 0.00 | 35 | 1009.3 |
| 20260505233037 | 54 | 321 | 12.0 | 20.0 | 0.00 | 0.00 | 0.00 | 35 | 1009.3 |
| 20260505232533 | 54 | 298 | 10.0 | 17.0 | 0.00 | 0.00 | 0.00 | 34 | 1009.2 |
| 20260505232057 | 54 | 319 | 9.0 | 14.0 | 0.00 | 0.00 | 0.00 | 36 | 1009.2 |
| 20260505231531 | 55 | 303 | 8.0 | 23.0 | 0.00 | 0.00 | 0.00 | 36 | 1009.2 |
| 20260505231029 | 55 | 279 | 12.0 | 23.0 | 0.00 | 0.00 | 0.00 | 35 | 1009.2 |
| 20260505230520 | 55 | 312 | 13.0 | 19.0 | 0.00 | 0.00 | 0.00 | 35 | 1009.2 |
| 20260505230023 | 55 | 329 | 9.0 | 17.0 | 0.00 | 0.00 | 0.00 | 35 | 1009.4 |
| 20260505225519 | 55 | 314 | 11.0 | 20.0 | 0.00 | 0.00 | 0.00 | 33 | 1009.2 |
| 20260505225031 | 55 | 313 | 14.0 | 25.0 | 0.00 | 0.00 | 0.00 | 33 | 1009.3 |
| 20260505224519 | 56 | 298 | 16.0 | 25.0 | 0.00 | 0.00 | 0.00 | 33 | 1009.2 |
| 20260505224018 | 56 | 342 | 9.0 | 20.0 | 0.00 | 0.00 | 0.00 | 35 | 1009.2 |
| 20260505223535 | 56 | 323 | 13.0 | 20.0 | 0.00 | 0.00 | 0.00 | 33 | 1009.2 |
| 20260505223016 | 56 | 304 | 12.0 | 20.0 | 0.00 | 0.00 | 0.00 | 32 | 1009.2 |
| 20260505222523 | 57 | 294 | 11.0 | 23.0 | 0.00 | 0.00 | 0.00 | 33 | 1009.1 |
| 20260505222033 | 57 | 297 | 15.0 | 23.0 | 0.00 | 0.00 | 0.00 | 31 | 1009.2 |
| 20260505221534 | 57 | 299 | 10.0 | 21.0 | 0.00 | 0.00 | 0.00 | 32 | 1009.1 |
| 20260505221029 | 57 | 304 | 16.0 | 20.0 | 0.00 | 0.00 | 0.00 | 33 | 1009.0 |
| 20260505220542 | 57 | 271 | 11.0 | 18.0 | 0.00 | 0.00 | 0.00 | 34 | 1008.8 |
| 20260505220028 | 57 | 304 | 9.0 | 20.0 | 0.00 | 0.00 | 0.00 | 33 | 1008.7 |
| 20260505215522 | 58 | 302 | 10.0 | 20.0 | 0.00 | 0.00 | 0.00 | 33 | 1008.8 |
| 20260505215018 | 58 | 325 | 9.0 | 20.0 | 0.00 | 0.00 | 0.00 | 33 | 1008.8 |
| 20260505214527 | 58 | 312 | 8.0 | 21.0 | 0.00 | 0.00 | 0.00 | 34 | 1008.8 |
| 20260505214024 | 58 | 304 | 14.0 | 21.0 | 0.00 | 0.00 | 0.00 | 32 | 1008.6 |
| 20260505213521 | 58 | 323 | 8.0 | 17.0 | 0.00 | 0.00 | 0.00 | 34 | 1008.7 |
| 20260505213021 | 58 | 300 | 12.0 | 16.0 | 0.00 | 0.00 | 0.00 | 32 | 1008.7 |
| 20260505212532 | 58 | 294 | 7.0 | 14.0 | 0.00 | 0.00 | 0.00 | 37 | 1008.7 |
| 20260505212016 | 57 | 318 | 9.0 | 28.0 | 0.00 | 0.00 | 0.00 | 34 | 1008.8 |
| 20260505211526 | 57 | 298 | 14.0 | 28.0 | 0.00 | 0.00 | 0.00 | 34 | 1008.7 |
| 20260505211020 | 57 | 15 | 11.0 | 17.0 | 0.00 | 0.00 | 0.00 | 33 | 1008.7 |
| 20260505210523 | 58 | 318 | 9.0 | 17.0 | 0.00 | 0.00 | 0.00 | 34 | 1008.9 |
| 20260505210017 | 58 | 278 | 11.0 | 20.0 | 0.00 | 0.00 | 0.00 | 33 | 1008.9 |
| 20260505205531 | 58 | 283 | 12.0 | 20.0 | 0.00 | 0.00 | 0.00 | 33 | 1008.8 |
| 20260505205016 | 59 | 309 | 11.0 | 20.0 | 0.00 | 0.00 | 0.00 | 32 | 1008.8 |
| 20260505204526 | 58 | 319 | 5.0 | 20.0 | 0.00 | 0.00 | 0.00 | 36 | 1008.8 |
| 20260505204023 | 58 | 246 | 14.0 | 21.0 | 0.00 | 0.00 | 0.00 | 34 | 1008.9 |
| 20260505203538 | 58 | 259 | 10.0 | 18.0 | 0.00 | 0.00 | 0.00 | 32 | 1008.8 |
| 20260505203033 | 59 | 275 | 11.0 | 18.0 | 0.00 | 0.00 | 0.00 | 33 | 1009.0 |
| 20260505202525 | 58 | 255 | 10.0 | 18.0 | 0.00 | 0.00 | 0.00 | 36 | 1009.0 |
| 20260505202038 | 57 | 281 | 8.0 | 23.0 | 0.00 | 0.00 | 0.00 | 34 | 1009.1 |
| 20260505201518 | 57 | 265 | 11.0 | 23.0 | 0.00 | 0.00 | 0.00 | 35 | 1009.3 |
| 20260505201035 | 57 | 280 | 10.0 | 22.0 | 0.00 | 0.00 | 0.00 | 34 | 1009.4 |
| 20260505200520 | 56 | 240 | 3.0 | 18.0 | 0.00 | 0.00 | 0.00 | 33 | 1009.4 |
| 20260505200034 | 57 | 258 | 13.0 | 22.0 | 0.00 | 0.00 | 0.00 | 35 | 1009.5 |
| 20260505195550 | 57 | 281 | 14.0 | 24.0 | 0.00 | 0.00 | 0.00 | 32 | 1009.6 |
| 20260505195016 | 57 | 257 | 11.0 | 24.0 | 0.00 | 0.00 | 0.00 | 33 | 1009.6 |
| 20260505194521 | 58 | 300 | 11.0 | 20.0 | 0.00 | 0.00 | 0.00 | 32 | 1009.6 |
| 20260505194035 | 58 | 281 | 13.0 | 19.0 | 0.00 | 0.00 | 0.00 | 33 | 1009.6 |
| 20260505193519 | 58 | 315 | 9.0 | 18.0 | 0.00 | 0.00 | 0.00 | 33 | 1009.6 |
| 20260505193027 | 58 | 307 | 12.0 | 24.0 | 0.00 | 0.00 | 0.00 | 31 | 1009.6 |
| 20260505192545 | 58 | 335 | 11.0 | 24.0 | 0.00 | 0.00 | 0.00 | 35 | 1009.6 |
| 20260505192039 | 58 | 294 | 10.0 | 17.0 | 0.00 | 0.00 | 0.00 | 36 | 1009.6 |
| 20260505191520 | 58 | 309 | 12.0 | 18.0 | 0.00 | 0.00 | 0.00 | 31 | 1009.6 |
| 20260505191030 | 58 | 247 | 12.0 | 21.0 | 0.00 | 0.00 | 0.00 | 33 | 1009.6 |
| 20260505190539 | 57 | 300 | 14.0 | 21.0 | 0.00 | 0.00 | 0.00 | 32 | 1009.7 |
| 20260505190029 | 57 | 258 | 10.0 | 20.0 | 0.00 | 0.00 | 0.00 | 33 | 1009.7 |
| 20260505185521 | 57 | 259 | 11.0 | 20.0 | 0.00 | 0.00 | 0.00 | 34 | 1009.6 |